TimeCDT,TemperatureF,Dew PointF,Humidity,Sea Level PressureIn,VisibilityMPH,Wind Direction,Wind SpeedMPH,Gust SpeedMPH,PrecipitationIn,Events,Conditions,WindDirDegrees,DateUTC
12:52 AM,51.1,33.1,50,29.72,10.0,WNW,13.8,28.8,N/A,,Overcast,300,2012-10-19 05:52:00
1:52 AM,50.0,33.1,52,29.71,10.0,WNW,12.7,21.9,N/A,,Mostly Cloudy,300,2012-10-19 06:52:00
2:52 AM,51.1,34.0,52,29.71,10.0,WNW,11.5,20.7,N/A,,Overcast,300,2012-10-19 07:52:00
3:52 AM,50.0,34.0,54,29.68,10.0,West,9.2,-,N/A,,Overcast,280,2012-10-19 08:52:00
4:52 AM,51.1,34.0,52,29.68,10.0,West,11.5,20.7,N/A,,Overcast,280,2012-10-19 09:52:00
5:52 AM,50.0,34.0,54,29.68,10.0,West,10.4,-,N/A,,Overcast,270,2012-10-19 10:52:00
6:52 AM,50.0,34.0,54,29.70,10.0,West,16.1,26.5,N/A,,Overcast,280,2012-10-19 11:52:00
7:52 AM,50.0,33.1,52,29.71,10.0,WNW,17.3,26.5,N/A,,Overcast,290,2012-10-19 12:52:00
8:52 AM,48.9,34.0,56,29.73,10.0,West,15.0,24.2,N/A,,Overcast,280,2012-10-19 13:52:00
9:52 AM,48.9,35.1,59,29.75,10.0,West,15.0,24.2,N/A,,Overcast,280,2012-10-19 14:52:00
10:52 AM,50.0,35.1,57,29.78,10.0,WNW,13.8,25.3,N/A,,Overcast,290,2012-10-19 15:52:00
11:52 AM,50.0,35.1,57,29.80,10.0,West,18.4,26.5,N/A,,Overcast,280,2012-10-19 16:52:00
12:52 PM,50.0,35.1,57,29.81,10.0,WNW,10.4,-,N/A,,Overcast,290,2012-10-19 17:52:00
1:52 PM,51.1,36.0,56,29.81,10.0,WNW,13.8,23.0,N/A,,Overcast,290,2012-10-19 18:52:00
2:52 PM,52.0,36.0,54,29.81,10.0,WNW,13.8,23.0,N/A,,Overcast,290,2012-10-19 19:52:00
3:52 PM,52.0,37.9,59,29.82,10.0,West,13.8,20.7,N/A,,Overcast,280,2012-10-19 20:52:00
4:52 PM,52.0,37.9,59,29.82,10.0,WNW,16.1,21.9,N/A,,Overcast,290,2012-10-19 21:52:00
5:52 PM,52.0,37.9,59,29.83,10.0,WNW,9.2,-,N/A,,Overcast,290,2012-10-19 22:52:00
6:52 PM,51.1,39.0,63,29.84,10.0,NW,6.9,-,N/A,,Overcast,320,2012-10-19 23:52:00
7:52 PM,48.0,37.9,68,29.85,10.0,West,5.8,-,N/A,,Clear,270,2012-10-20 00:52:00
8:52 PM,44.1,37.0,76,29.86,10.0,Calm,Calm,-,N/A,,Clear,0,2012-10-20 01:52:00
9:52 PM,41.0,36.0,82,29.86,10.0,SSW,4.6,-,N/A,,Clear,210,2012-10-20 02:52:00
10:52 PM,41.0,36.0,82,29.86,10.0,SSW,4.6,-,N/A,,Clear,210,2012-10-20 03:52:00
11:52 PM,39.9,36.0,86,29.86,10.0,SW,4.6,-,N/A,,Clear,220,2012-10-20 04:52:00